Location: Unspecified
(0.0000°N, 0.0000°E)
Time: 13:09:24
(UTC+00:00)

Vanguard 1 - Pass Details

Date: 16 December 2018
Orbit: 652 x 3832 km, 34.2° (Epoch: 25 March)

Event Time Altitude Azimuth Distance (km) Brightness Sun altitude
Rises 19:19:34 0° 247° (WSW) 7,926 16.4 -19.2°
Reaches altitude 10° 19:28:43 10° 229° (SW) 6,918 15.4 -21.2°
Maximum altitude 19:42:00 18° 193° (SSW) 5,815 14.4 -24.2°
Drops below altitude 10° 19:53:07 10° 156° (SSE) 5,689 13.9 -26.7°
Sets 19:59:21 0° 137° (SE) 6,103 14.0 -28.1°
